• MPC Preparation (Info)

  • MPEC 2019-T159 : S/2004 S 37

    The following Minor Planet Electronic Circular may be linked-to from your own Web pages, but must not otherwise be redistributed electronically.

    A form allowing access to any MPEC is at the bottom of this page.


    Read MPEC 2019-T158 Read MPEC 2019-T160


    M.P.E.C. 2019-T159                              Issued 2019 October 8, 17:50 UT
    
         The Minor Planet Electronic Circulars contain information on unusual
             minor planets and routine data on comets.  They are published
        on behalf of Division F of the International Astronomical Union by the
              Minor Planet Center, Smithsonian Astrophysical Observatory,
                              Cambridge, MA 02138, U.S.A.
    
                 Prepared using the Tamkin Foundation Computer Network
    
                                  MPC@CFA.HARVARD.EDU
                URL https://www.minorplanetcenter.net/    ISSN 1523-6714
    
                                   S/2004 S 37                               
    
    
    Observations:
        SK04S370* C2004 12 12.44635 07 54 34.230+20 45 07.65         25.3 RcET159568
        SK04S370  C2004 12 12.47500 07 54 33.769+20 45 09.43         25.3 RcET159568
        SK04S370  C2004 12 12.50208 07 54 33.322+20 45 11.02         25.4 RcET159568
        SK04S370  C2004 12 14.60215 07 53 58.654+20 47 12.03         25.3 RcET159568
        SK04S370  C2004 12 14.64145 07 53 58.001+20 47 13.95         25.2 RcET159568
        SK04S370  C2005 01 05.60799 07 46 40.523+21 11 16.45         25   RVET159568
        SK04S370  C2005 01 05.61929 07 46 40.265+21 11 17.25         25   RVET159568
        SK04S370  C2006 01 05.52396 08 51 58.454+17 57 24.21               cET159568
        SK04S370  C2006 01 05.56917 08 51 57.718+17 57 26.99               cET159568
        SK04S370  C2006 01 06.52532 08 51 41.950+17 58 35.61         25.2 RcET159568
        SK04S370  C2006 01 06.53756 08 51 41.761+17 58 36.80         24.9 RcET159568
        SK04S370  C2006 02 01.32936 08 43 39.810+18 32 32.18         24.9 RcET159568
        SK04S370  C2006 02 01.35376 08 43 39.298+18 32 34.29         24.8 RcET159568
        SK04S370  C2006 02 02.31788 08 43 20.489+18 33 51.81               cET159568
        SK04S370  C2006 02 02.34594 08 43 19.944+18 33 53.80               cET159568
    
    Observer details:
    568 Mauna Kea.  Observers S. S. Sheppard, D. C. Jewitt, J. Kleyna.  Measurer S. 
       S. Sheppard.  8.2-m reflector + CCD.
    
    Orbital elements:
    S/2004 S 37
    Epoch 2019 Apr. 27.0 TT = JDT 2458600.5                 Williams
    M 298.22297              (2000.0)            P               Q
    n   0.48131711     Peri.  114.58798     +0.60356259     +0.79449648
    a   0.1062297      Node   166.80294     +0.58321201     -0.49721655
    e   0.4965163      Incl.  162.93689     +0.54366898     -0.34864173
    P   2.05           H   15.9           P/d   747.95
    From 15 observations 2004 Dec. 12-2006 Feb. 2, mean residual 0".24.
    
    Residuals in seconds of arc
    041212 568  0.3-  0.1+    050105 568  0.1+  0.1+    060106 568  0.3+  0.1+
    041212 568  0.1-  0.2+    050105 568  0.0   0.1+    060201 568  0.0   0.4-
    041212 568  0.1-  0.2+    060105 568  0.0   0.6+    060201 568  0.3-  0.3-
    041214 568  0.1+  0.1-    060105 568  0.3+  0.2+    060202 568  0.2-  0.1+
    041214 568  0.4+  0.5-    060106 568  0.0   0.2-    060202 568  0.0   0.1-
    
    
    A. U. Tomatic                (C) Copyright 2019 MPC           M.P.E.C. 2019-T159
    


    Read MPEC 2019-T158 Read MPEC 2019-T160


    MPEC number:

    Enter an MPEC number in one of the following forms:

    • 1997-B01 (the full form)
    • J97B01 (the packed version of the full form)
    • B01 (the abbreviated form)